GFSNGP_prec_radar_087.txt.gz
Reflectivity
-20 -20 -20 -20 -20 -20 -20 -15 33 -8 18 -8 2 28 36 36 11 16 -20 -13 -3 16 14 18 20 12 22 17 7 3 13 19 18 5 16 0 -19 8 -20 -20 -20 -20 -20 -20
-20 -20 -20 -20 -20 -20 -20 -20 8 -5 26 -15 1 15 26 37 38 21 27 -1 24 12 -18 -6 -20 -20 -16 -20 -20 -20 -17 -20 -20 -20 -2 18 22 0 -2 -7 11 -20 15 -19
-20 -20 -20 -20 -20 -18 -20 -20 -20 5 32 4 20 13 22 33 38 33 25 26 34 17 -4 12 -20 -20 -20 -20 -20 -20 -20 -5 20 12 9 6 -1 9 9 8 -12 -20 -20 -20
-20 -20 -20 -20 -20 1 -20 -20 -16 -20 17 25 24 24 27 35 36 37 31 33 34 21 25 12 -20 -20 -20 -20 -20 -20 -20 -20 -20 -20 -20 -20 -18 2 -8 11 17 5 4 -7
-20 -20 -20 -20 -20 -20 -20 -20 -20 -20 -12 36 20 13 29 28 30 33 34 34 27 28 22 21 13 -15 -20 -20 -20 -20 -20 -20 -20 -20 -20 -20 -20 -20 -20 -20 -1 -5 17 18
-20 -0 -20 -20 -20 -20 -20 -20 -20 -20 -19 -16 20 14 21 21 22 35 31 27 26 19 16 3 -16 -11 -11 -12 -20 -20 -20 -20 -20 -20 -20 -20 -20 -20 -20 -20 -20 -16 -10 7
-20 0 -20 -20 -20 -20 -20 -20 -19 -12 17 20 5 -9 8 -13 26 35 24 10 10 13 18 11 -3 -9 -12 -20 -20 -20 -20 -20 -20 -20 -20 -20 -20 -20 -20 -20 -20 -20 -20 -20
-20 -6 -15 -20 -20 -20 -20 -20 -1 18 13 18 11 12 -7 -19 -16 -19 5 -2 -20 -20 -14 -5 3 6 -10 -20 -20 -20 -20 -20 -20 -20 -20 -20 -20 -20 -20 -20 -20 -20 -20 -20
2 -20 -17 -19 -20 -20 -20 -20 10 10 19 17 28 22 17 -18 -20 -20 -20 -20 -20 -20 -20 -20 -20 -20 -20 -20 -20 -20 -20 -20 -20 -20 -20 -20 -20 -20 -20 -20 -20 -20 -20 -20
38 14 5 0 -20 -20 -20 -20 -19 -15 -1 4 21 15 26 9 -2 25 24 2 -20 -20 -20 -20 -20 -20 -20 -20 -20 -20 -20 -20 -20 -20 -20 -20 -20 -20 -20 -20 -20 -20 -20 -20
32 27 30 26 13 13 -9 -15 -12 -13 3 -10 -20 4 11 14 -5 -12 -20 -18 -20 -20 -20 -20 -17 -15 -20 -20 -20 -20 -20 -20 -20 -20 -20 -20 -18 -17 -17 -6 -18 -19 -20 -20
15 27 35 19 28 21 14 22 7 9 6 -10 -4 -14 9 4 0 -20 -20 -20 -20 -20 -20 -16 -20 -20 -20 -16 -20 -20 -20 -20 -20 -20 -20 -20 -20 -19 -20 -20 -20 -20 -20 -20
30 33 27 29 30 30 14 4 9 6 4 2 -20 -5 -19 -8 -18 -20 -20 -20 -20 -20 -20 -20 -20 -20 -20 -20 -20 -20 -20 -20 -20 -20 -20 -20 -20 -20 -20 -20 -20 -4 2 -10
7 16 -3 -5 7 -20 -12 -3 -6 4 -20 -20 -20 -20 -11 -20 -20 -20 -20 -20 -20 -20 -20 -20 -20 -20 -20 -20 -20 -20 -20 -20 -20 -20 -20 -20 -20 -20 -20 -20 -20 -20 -20 -7
-20 -20 -20 -20 -20 -20 -20 -20 -20 -18 -20 -20 -20 -20 -20 -20 -20 -20 -20 -20 -20 -20 -20 -20 -20 -20 -20 -20 -20 -20 -20 -20 -20 -20 -20 -20 -20 -20 -20 -20 -20 -20 -20 -20
-20 -20 -20 -20 -20 -20 -20 -20 -20 -20 -20 -20 -20 -20 -20 -20 -20 -20 -20 -20 -20 -20 -20 -20 -20 -20 -20 -20 -20 -20 -20 -20 -20 -20 -20 -20 -20 -20 -20 -20 -20 -20 -20 -20
-20 -20 -20 -20 -20 -20 -20 -20 -20 -20 -20 -20 -20 -20 -20 -20 -20 -20 -20 -20 -20 -20 -20 -20 -20 -20 -20 -20 -20 -20 -20 -20 -20 -20 -20 -20 -20 -20 -20 -20 -20 -20 -20 -20
-20 -20 -20 -20 -20 -20 -20 -20 -20 -20 -20 -20 -20 -20 -20 -20 -20 -20 -20 -20 -20 -20 -20 -20 -20 -20 -20 -20 -20 -20 -20 -20 -20 -20 -20 -20 -20 -20 -20 -20 -20 -20 -20 -20
-20 -20 -20 -20 -20 -20 -20 -20 -20 -20 -20 -20 -20 -20 -20 -20 -20 -20 -20 -20 -20 -20 -20 -20 -20 -20 -20 -20 -20 -20 -20 -20 -20 -20 -20 -20 -20 -20 -20 -20 -20 -20 -20 -20
-20 -20 -13 -20 -20 -20 -20 -20 -20 -20 -20 -20 -20 -20 -20 -20 -20 -20 -20 -20 -20 -20 -20 -20 -20 -20 -20 -20 -20 -20 -20 -20 -20 -20 -20 -20 -20 -20 -20 -20 -20 -20 -20 -20
-20 -20 -20 -20 -20 -20 -20 -20 -20 -20 -20 -20 -20 -20 -20 -20 -20 -20 -20 -20 -20 -20 -20 -20 -20 -20 -20 -20 -20 -20 -20 -20 -20 -20 -20 -20 -20 -20 -20 -20 -20 -20 -20 -20
-20 -20 -20 -20 -20 -20 -20 -20 -20 -20 -20 -20 -20 -20 -20 -20 -20 -20 -20 -20 -20 -20 -20 -20 -20 -20 -20 -20 -20 -20 -20 -20 -20 -20 -20 -20 -20 -20 -20 -20 -20 -20 -20 -20
-20 -20 -20 -20 -20 -20 -20 -20 -20 -20 -20 -20 -20 -20 -20 -20 -20 -20 -20 -20 -20 -20 -20 -20 -20 -20 -20 -20 -20 -20 -20 -20 -20 -20 -20 -20 -20 -20 -20 -20 -20 -20 -20 -20
-20 -20 -20 -20 -20 -20 -20 -20 -20 -20 -20 -20 -20 -20 -20 -20 -20 -20 -20 -20 -20 -20 -20 -20 -20 -20 -20 -20 -20 -20 -20 -20 -20 -20 -20 -20 -20 -20 -20 -20 -20 -20 -20 -20
-20 -20 -20 -20 -20 -20 -20 -20 -20 -20 -20 -20 -20 -20 -20 -20 -20 -20 -20 -20 -20 -20 -20 -20 -20 -20 -20 -20 -20 -20 -20 -20 -20 -20 -20 -20 -20 -20 -20 -20 -20 -20 -20 -20
-20 -20 -20 -20 -20 -20 -20 -20 -20 -20 -20 -20 -20 -20 -20 -20 -20 -20 -20 -20 -20 -20 -20 -20 -20 -20 -20 -20 -20 -20 -20 -20 -20 -20 -20 -20 -20 -20 -20 -20 -20 -20 -20 -20
-20 -20 -20 -20 -20 -20 -20 -20 -20 -20 -20 -20 -20 -20 -20 -20 -20 -20 -20 -20 -20 -20 -20 -20 -20 -20 -20 -20 -20 -20 -20 -20 -20 -20 -20 -20 -20 -20 -20 -20 -20 -20 -20 -20

GFSNGP_prec_radar_090.txt.gz
Reflectivity
-20 -20 -20 -20 -20 -20 -20 -20 1 -20 -20 -20 -20 10 2 31 32 5 19 20 23 18 20 20 20 24 24 26 24 20 24 12 4 -11 -20 -20 -20 -20 -20 -20 -20 -20 -20 -20
-20 -20 -20 -20 -20 -20 -20 -20 -20 -20 -16 -3 5 4 5 30 37 34 -3 5 -11 -1 -7 10 10 18 19 29 0 14 20 13 5 16 21 16 -6 -5 2 4 6 -20 -20 -20
-20 -20 -20 -20 -20 -20 -20 -20 -20 -20 -20 -5 20 28 16 27 19 34 37 8 7 7 -10 -15 11 27 31 33 9 29 3 -12 9 13 3 -15 4 16 21 24 16 9 -11 -13
-20 -20 -20 -20 -20 -20 -20 -20 -20 -20 -20 5 29 29 31 24 33 36 38 36 36 30 17 10 30 31 21 3 8 17 -18 -16 -14 -20 -20 -20 8 5 8 15 16 24 18 19
-20 -20 -20 -20 -20 -20 -20 -20 -20 -20 -20 -20 22 28 15 31 29 37 36 34 32 36 25 19 15 17 17 5 9 -15 -15 5 -20 -20 -20 -20 -20 -20 -20 -20 -20 -7 9 1
-20 -20 -20 -20 -20 -20 -20 -20 -20 -20 -20 -20 -20 39 24 31 16 33 28 30 25 26 21 30 27 17 11 15 -13 -20 -20 -1 -16 -20 -20 -20 -20 -20 -20 -20 -20 -20 -20 -20
-20 -15 -20 -20 -20 -20 -20 -20 -20 -20 -20 -20 -20 2 32 17 21 29 4 21 20 11 21 15 20 22 17 2 -12 -20 -20 -20 -20 -20 -20 -20 -20 -20 -20 -20 -20 -20 -18 -20
-20 -19 -17 -20 -20 -20 -20 -20 -20 -20 -16 22 -17 -19 3 11 23 1 -20 -20 -20 -15 -13 -5 6 8 9 10 3 -3 -17 -20 -20 -19 -14 -20 -20 -20 -20 -20 -20 -20 -20 -20
10 -20 -13 -20 -20 11 4 -20 -20 -20 -5 19 34 27 26 33 28 -16 -20 -20 -20 -20 -20 -20 -20 -6 5 1 7 6 -1 -7 -15 -20 -20 -20 -20 -20 -20 -20 -20 -20 -20 -20
-5 37 24 5 14 0 25 19 6 12 28 25 22 26 23 15 15 15 6 -14 -20 -20 -20 -20 -20 -20 -20 -7 -18 -11 -19 -20 -20 -20 -20 -20 -20 -20 -20 -20 -20 -20 -20 -20
26 30 29 18 32 29 24 14 -14 -20 -20 -20 -20 -14 -15 -14 -20 -14 -12 -14 -19 -20 -20 -20 -20 -20 -20 -20 -20 -20 -20 -20 -20 -20 -20 -20 -18 -17 -17 -13 -17 -19 -19 -16
-3 -7 20 19 25 28 20 12 12 9 8 -18 -18 -20 -20 -20 -20 -20 -17 -13 -20 -20 -20 -20 -20 -20 -20 -20 -20 -20 -20 -20 -20 -20 -20 -20 -20 -19 -4 6 9 9 8 -16
10 25 18 20 22 20 12 11 -14 -20 -20 -20 -4 2 -5 -20 -20 -20 -20 -20 -20 -20 -20 -20 -20 -20 -20 -20 -20 -20 -20 -20 -20 -20 -20 -20 -20 -20 -20 -20 -20 -9 -6 -6
-16 -12 -15 -20 -12 -12 -20 -20 -20 -20 -15 -17 -20 -20 -20 -20 -20 -20 -20 -20 -20 -20 -20 -20 -20 -20 -20 -20 -20 -20 -20 -20 -20 -20 -20 -20 -20 -20 -20 -20 -20 -20 -20 -20
-20 -20 -20 -20 -20 -20 -20 -20 -20 -20 -20 -20 -20 -20 -20 -20 -20 -20 -20 -20 -20 -20 -20 -20 -20 -20 -20 -20 -20 -20 -20 -20 -20 -20 -20 -20 -20 -20 -20 -20 -20 -20 -20 -20
-20 -20 -20 -20 -20 -20 -20 -20 -20 -20 -20 -20 -20 -20 -20 -20 -20 -20 -20 -20 -20 -20 -20 -20 -20 -20 -20 -20 -20 -20 -20 -20 -20 -20 -20 -20 -20 -20 -20 -20 -20 -20 -20 -20
-20 -20 -20 -20 -20 -20 -20 -20 -20 -20 -20 -20 -20 -20 -20 -20 -20 -20 -20 -20 -20 -20 -20 -20 -20 -20 -20 -20 -20 -20 -20 -20 -20 -20 -20 -20 -20 -20 -20 -20 -20 -20 -20 -20
-20 -20 -20 -20 -20 -20 -20 -20 -20 -20 -20 -20 -20 -20 -20 -20 -20 -20 -20 -20 -20 -20 -20 -20 -20 -20 -20 -20 -20 -20 -20 -20 -20 -20 -20 -20 -20 -20 -20 -20 -20 -20 -20 -20
-20 -20 -20 -20 -20 -20 -20 -20 -20 -20 -20 -20 -20 -20 -20 -20 -20 -20 -20 -20 -20 -20 -20 -20 -20 -20 -20 -20 -20 -20 -20 -20 -20 -20 -20 -20 -20 -20 -20 -20 -20 -20 -20 -20
-20 -20 -20 -20 -20 -20 -20 -20 -20 -20 -20 -20 -20 -20 -20 -20 -20 -20 -20 -20 -20 -20 -20 -20 -20 -20 -20 -20 -20 -20 -20 -20 -20 -20 -20 -20 -20 -20 -20 -20 -20 -20 -20 -20
-20 -20 -20 -20 -20 -20 -20 -20 -20 -20 -20 -20 -20 -20 -20 -20 -20 -20 -20 -20 -20 -20 -20 -20 -20 -20 -20 -20 -20 -20 -20 -20 -20 -20 -20 -20 -20 -20 -20 -20 -20 -20 -20 -20
-20 -20 -20 -20 -20 -20 -20 -20 -20 -20 -20 -20 -20 -20 -20 -20 -20 -20 -20 -20 -20 -20 -20 -20 -20 -20 -20 -20 -20 -20 -20 -20 -20 -20 -20 -20 -20 -20 -20 -20 -20 -20 -20 -20
-20 -20 -20 -20 -20 -20 -20 -20 -20 -20 -20 -20 -20 -20 -20 -20 -20 -20 -20 -20 -20 -20 -20 -20 -20 -20 -20 -20 -20 -20 -20 -20 -20 -20 -20 -20 -20 -20 -20 -20 -20 -20 -20 -20
-20 -20 -20 -20 -20 -20 -20 -20 -20 -20 -20 -20 -20 -20 -20 -20 -20 -20 -20 -20 -20 -20 -20 -20 -20 -20 -20 -20 -20 -20 -20 -20 -20 -20 -20 -20 -20 -20 -20 -20 -20 -20 -20 -20
-20 -20 -20 -20 -20 -20 -20 -20 -20 -20 -20 -20 -20 -20 -20 -20 -20 -20 -20 -20 -20 -20 -20 -20 -20 -20 -20 -20 -20 -20 -20 -20 -20 -20 -20 -20 -20 -20 -20 -20 -20 -20 -20 -20
-20 -20 -20 -20 -20 -20 -20 -20 -20 -20 -20 -20 -20 -20 -20 -20 -20 -20 -20 -20 -20 -20 -20 -20 -20 -20 -20 -20 -20 -20 -20 -20 -20 -20 -20 -20 -20 -20 -20 -20 -20 -20 -20 -20
-20 -20 -20 -20 -20 -20 -20 -20 -20 -20 -20 -20 -20 -20 -20 -20 -20 -20 -20 -20 -20 -20 -20 -20 -20 -20 -20 -20 -20 -20 -20 -20 -20 -20 -20 -20 -20 -20 -20 -20 -20 -20 -20 -20

GFSNGP_prec_radar_093.txt.gz
Reflectivity
-20 -20 -20 -20 -20 -20 -20 -20 -17 -20 -20 -20 -20 -9 14 -3 -7 35 44 31 21 26 17 20 14 25 22 26 26 24 22 22 18 -18 -20 3 -20 -20 -20 4 4 -20 -20 -20
-20 -20 -20 -20 -20 -20 -20 -20 -20 -20 -20 -20 -20 -11 25 1 -2 19 42 34 39 34 22 29 25 25 25 22 24 19 17 22 32 18 18 3 -9 -10 -20 -4 -6 -20 -20 6
-20 -20 -20 -20 -20 -20 -20 -20 -20 -20 -20 -20 -20 -5 37 30 10 9 33 35 32 21 16 13 13 20 15 8 9 -17 17 34 14 28 25 19 14 9 8 6 3 15 21 23
-20 -20 -20 -20 -20 -20 -20 -20 -20 -20 -20 -20 -20 -12 34 32 34 30 34 35 38 38 23 -5 -17 -16 -8 -12 4 14 34 30 25 29 29 23 15 6 11 7 17 6 14 17
-20 -20 -20 -20 -20 -20 -20 -20 -20 -20 -20 -20 -20 -20 30 35 26 33 28 28 31 33 33 33 21 9 14 16 14 28 37 34 24 -4 -4 -2 -13 -19 -20 -20 -18 -16 7 2
-20 -20 -20 -20 -20 -20 -20 -20 -20 -20 -20 -20 2 -16 7 28 33 33 30 28 15 17 21 31 26 25 28 21 23 31 33 23 14 -7 -20 -20 -20 -20 -20 -20 -20 -20 -20 -20
-18 -20 -20 -20 -20 -20 -20 -20 2 -20 -20 3 15 -16 20 28 17 29 9 2 -20 -20 -15 10 26 24 19 21 26 34 16 3 -8 -20 -20 -20 -20 -20 -20 -20 -20 -20 -20 -20
-19 -13 -20 -20 -20 -17 -1 -4 10 -4 -20 -14 26 26 21 23 23 20 -3 -2 -1 -20 -20 -20 -7 15 10 9 11 9 9 3 -1 -18 -20 -20 -20 -20 -20 -20 -20 -19 -20 -20
-17 14 25 2 -1 12 -1 -2 16 20 21 5 6 20 23 23 28 26 17 -20 -14 -0 -19 -20 -20 -20 -3 -15 6 5 -5 -9 -1 6 8 -0 8 10 7 -20 -12 -20 -20 -20
4 20 10 20 2 3 3 19 20 9 7 30 18 19 23 26 29 26 16 1 -10 -20 -20 -20 -20 -20 -20 -2 -9 -12 9 9 -6 -8 -8 -20 -20 -20 -17 -4 -4 -7 -7 -1
21 18 19 -20 5 15 -2 0 -8 -10 -20 -20 -20 -20 -20 -15 -1 -4 -5 -10 -20 -20 -20 -20 -20 -20 -20 -20 -20 -20 -20 -15 9 6 -20 -20 -6 -9 1 7 3 -1 3 1
-2 0 3 -3 -3 7 12 4 2 -7 -19 -19 -17 -16 -20 -20 -20 -20 -20 -20 -20 -20 -20 -20 -20 -20 -20 -20 -20 -20 -20 -20 -20 -20 -20 -20 -20 -20 -20 -13 -3 -5 -5 -7
12 25 3 -3 -11 -6 10 15 2 -20 -20 -20 -20 -20 -20 -20 -20 -20 -20 -20 -20 -20 -20 -20 -20 -20 -20 -20 -20 -20 -20 -20 -20 -20 -20 -20 -20 -20 -20 -12 -9 -7 -1 1
8 -3 -5 -18 -19 -20 -20 -20 -20 -20 -20 -20 -20 -20 -20 -20 -20 -20 -20 -20 -20 -20 -20 -20 -20 -20 -20 -20 -20 -20 -20 -20 -20 -20 -20 -20 -20 -20 -20 -20 -20 -20 -6 -3
-20 -20 -20 -20 -20 -20 -20 -20 -20 -20 -20 -20 -20 -20 -20 -20 -20 -20 -20 -20 -20 -20 -20 -20 -20 -20 -20 -20 -20 -20 -20 -20 -20 -20 -20 -20 -20 -20 -20 -20 -20 -20 -20 -20
-20 -20 -20 -20 -20 -20 -20 -20 -20 -20 -20 -20 -20 -20 -20 -20 -20 -20 -20 -20 -20 -20 -20 -20 -20 -20 -20 -20 -20 -20 -20 -20 -20 -20 -20 -20 -20 -20 -20 -20 -20 -20 -20 -20
-20 -20 -20 -20 -20 -20 -20 -20 -20 -20 -20 -20 -20 -20 -20 -20 -20 -20 -20 -20 -20 -20 -20 -20 -20 -20 -20 -20 -20 -20 -20 -20 -20 -20 -20 -20 -20 -20 -20 -20 -20 -20 -20 -20
-20 -20 -20 -20 -20 -20 -20 -20 -20 -20 -20 -20 -20 -20 -20 -20 -20 -20 -20 -20 -20 -20 -20 -20 -20 -20 -20 -20 -20 -20 -20 -20 -20 -20 -20 -20 -20 -20 -20 -20 -20 -20 -20 -20
-20 -20 -20 -20 -20 -20 -20 -20 -20 -20 -20 -20 -20 -20 -20 -20 -20 -20 -20 -20 -20 -20 -20 -20 -20 -20 -20 -20 -20 -20 -20 -20 -20 -20 -20 -20 -20 -20 -20 -20 -20 -20 -20 -20
-20 -20 -20 -20 -20 -20 -20 -20 -20 -20 -20 -20 -20 -20 -20 -20 -20 -20 -20 -20 -20 -20 -20 -20 -20 -20 -20 -20 -20 -20 -20 -20 -20 -20 -20 -20 -20 -20 -20 -20 -20 -20 -20 -20
-20 -20 -20 -20 -20 -20 -20 -20 -20 -20 -20 -20 -20 -20 -20 -20 -20 -20 -20 -20 -20 -20 -20 -20 -20 -20 -20 -20 -20 -20 -20 -20 -20 -20 -20 -20 -20 -20 -20 -20 -20 -20 -20 -20
-20 -20 -20 -20 -20 -20 -20 -20 -20 -20 -20 -20 -20 -20 -20 -20 -20 -20 -20 -20 -20 -20 -20 -20 -20 -20 -20 -20 -20 -20 -20 -20 -20 -20 -20 -20 -20 -20 -20 -20 -20 -20 -20 -20
-20 -20 -20 -20 -20 -20 -20 -20 -20 -20 -20 -20 -20 -20 -20 -20 -20 -20 -20 -20 -20 -20 -20 -20 -20 -20 -20 -20 -20 -20 -20 -20 -20 -20 -20 -20 -20 -20 -20 -20 -20 -20 -20 -20
-20 -20 -20 -20 -20 -20 -20 -20 -20 -20 -20 -20 -20 -20 -20 -20 -20 -20 -20 -20 -20 -20 -20 -20 -20 -20 -20 -20 -20 -20 -20 -20 -20 -20 -20 -20 -20 -20 -20 -20 -20 -20 -20 -20
-20 -20 -20 -20 -20 -20 -20 -20 -20 -20 -20 -20 -20 -20 -20 -20 -20 -20 -20 -20 -20 -20 -20 -20 -20 -20 -20 -20 -20 -20 -20 -20 -20 -20 -20 -20 -20 -20 -20 -20 -20 -20 -20 -20
-20 -20 -20 -20 -20 -20 -20 -20 -20 -20 -20 -20 -20 -20 -20 -20 -20 -20 -20 -20 -20 -20 -20 -20 -20 -20 -20 -20 -20 -20 -20 -20 -20 -20 -20 -20 -20 -20 -20 -20 -20 -20 -20 -20
-20 -20 -20 -20 -20 -20 -20 -20 -20 -20 -20 -20 -20 -20 -20 -20 -20 -20 -20 -20 -20 -20 -20 -20 -20 -20 -20 -20 -20 -20 -20 -20 -20 -20 -20 -20 -20 -20 -20 -20 -20 -20 -20 -20

GFSNGP_prec_radar_096.txt.gz
Reflectivity
-11 -20 -20 -20 -20 -20 -20 -20 -20 -20 -20 -20 11 -1 -4 5 12 -7 -10 -6 28 20 27 25 19 16 5 12 22 25 1 4 19 2 10 0 14 12 8 1 -6 1 -20 -17
-20 -20 -20 -20 -20 -20 -20 -20 -20 -20 -20 8 -20 -20 5 15 11 9 22 35 35 33 30 23 29 24 12 17 16 24 21 8 24 20 15 -16 -20 -7 10 -20 -20 13 15 14
-20 -20 -20 -20 -20 -20 -20 -20 -20 -20 -20 -20 -20 -20 1 2 28 25 29 28 40 38 43 32 29 0 5 19 18 23 28 25 17 11 7 7 16 18 13 12 9 8 12 17
-20 -20 -20 -20 -20 -20 -20 -20 -20 -20 8 -8 -18 -2 -1 13 21 25 21 27 35 39 36 30 28 30 36 31 26 32 34 30 24 11 9 28 31 21 21 12 17 15 5 16
-20 -20 -20 -20 -20 -20 -20 -20 -20 -12 -10 -20 -7 12 -2 19 23 24 34 27 6 27 40 41 41 29 25 26 26 23 27 25 22 10 27 30 37 14 8 22 20 13 0 8
-20 -20 -20 6 -20 -20 -20 -20 -20 -20 -20 -19 13 21 1 -10 8 18 25 4 -14 -20 5 30 39 33 22 17 29 28 14 -6 24 16 34 37 32 36 32 26 26 5 -17 -20
-20 -20 -20 -1 -20 -20 -11 9 -20 -20 -15 11 10 15 1 -4 -2 24 6 9 -1 -14 -15 7 18 27 31 30 34 20 19 20 18 16 20 22 25 17 8 -5 -20 -20 -20 -20
-7 -16 -7 -13 -20 -16 7 1 -18 -1 5 6 -11 9 22 25 22 19 11 -1 2 -20 -20 -15 -11 12 16 17 21 24 32 26 16 8 24 28 21 9 4 -20 -20 -20 -20 -17
2 -0 13 4 3 5 3 -4 12 16 6 7 -4 -17 -4 -9 12 20 13 -17 -18 -6 -2 -20 -18 -2 5 -2 14 11 12 16 23 12 18 27 21 17 17 1 -20 -13 -12 -5
15 2 -11 7 4 3 2 -7 17 16 4 0 -17 -13 -20 -7 -20 -18 -20 -20 -20 -20 -20 -20 -20 -20 -20 -20 -4 6 1 8 -9 11 9 14 13 12 -0 -10 -2 -0 -1 0
6 10 -9 -10 -1 2 -3 -7 -18 -18 -19 -15 -20 -20 -20 -20 -20 -20 -20 -20 -20 -20 -20 -20 -20 -20 -20 -20 -20 -20 -8 2 2 -14 -4 3 4 1 -0 5 -1 2 3 4
-2 -10 -10 -1 0 -1 -17 -20 -20 -20 -20 -20 -20 -20 -20 -20 -20 -20 -20 -20 -20 -20 -20 -20 -20 -20 -20 -20 -20 -20 -20 -20 -6 -4 -8 -19 -19 -6 -10 -13 -3 -20 -19 -3
2 7 -4 -5 0 -9 -12 -20 -20 -20 -20 -20 -20 -20 -20 -20 -20 -20 -20 -20 -20 -20 -20 -20 -20 -7 -2 -9 -20 -20 0 -2 -20 -19 -20 -19 -1 -3 -4 -3 -7 -5 -3 -3
1 5 -18 -9 -15 -20 -20 -20 -20 -20 -20 -20 -20 -20 -20 -20 -19 -20 -5 -7 -20 -20 -20 -18 -20 -2 -3 -7 -20 -20 -2 -16 -0 1 0 -0 0 -1 -0 0 -0 0 -6 -6
-20 -20 -20 -20 -20 -20 -20 -20 -20 -20 -20 -20 -20 -20 -20 -20 -20 -20 -20 -20 -20 -20 -20 -20 -20 -3 -4 -6 -16 -7 -11 -2 -1 -1 1 0 1 2 2 1 2 2 2 -16
-20 -20 -20 -20 -20 -20 -20 -20 -20 -20 -20 -20 -20 -20 -20 -20 -20 -20 -20 -20 -20 -20 -20 -20 -20 -17 -20 -3 -1 -2 -5 -20 -6 0 1 0 -1 -3 -6 -16 -16 -4 -20 -5
-10 -8 -20 -20 -20 -20 -20 -20 -20 -20 -3 -4 -4 -5 -20 -20 -20 -20 -20 -20 -20 -20 -3 -2 -3 -20 -20 -20 -1 -1 0 -8 -20 -2 -4 -20 -20 -20 -20 -20 -20 -20 -20 -20
-20 -20 -20 -20 -9 -20 -20 -20 -20 -20 -15 -8 -20 -20 -20 -20 -20 -20 -20 -20 -20 -20 -20 -3 -14 -20 -20 -20 -20 -1 1 -2 -20 -20 -20 -14 -20 -20 -20 -20 -20 -20 -20 -20
-20 -20 -20 -20 -20 -20 -20 -3 -5 -14 -20 -20 -20 -20 -20 -20 -13 -13 -20 -20 -20 -20 -20 -20 -20 -20 -20 -20 -20 -20 -2 -2 -20 -20 -20 -20 -20 -20 -20 -20 -20 -20 -20 -20
-20 -20 -20 -20 -20 -20 -20 -20 -20 -20 -20 -20 -20 -20 -20 -20 -20 -20 -20 -20 -20 -20 -4 -20 -20 -20 -20 -20 -20 -20 -17 -7 -20 -18 -20 -20 -1 -2 -20 -20 -20 -17 -4 -7
-20 -20 -20 -20 -20 -20 -20 -20 -20 -20 -20 -20 -20 -20 -20 -20 -20 -20 -20 -20 -20 -20 -20 -20 -20 -20 -20 -20 -20 -6 -1 -3 -3 -1 -2 0 -2 -4 -3 -2 -3 -0 -1 -1
-20 -20 -20 -20 -20 -20 -20 -20 -20 -20 -20 -20 -20 -20 -20 -20 -20 -20 -20 -20 -20 -20 -20 -20 -20 -20 -20 -20 -20 -12 -20 -20 -10 -13 -3 -2 -1 -2 -1 -1 -1 0 0 0
-20 -20 -20 -20 -20 -20 -20 -20 -20 -20 -20 -20 -20 -20 -20 -20 -20 -20 -20 -16 -20 -17 -20 -9 -20 -20 -20 -2 -0 -1 -2 -3 -3 -3 -2 -1 -1 -1 -2 -1 -1 -1 -0 -1
-20 -20 -20 -20 -20 -20 -20 -19 -20 -20 -20 -20 -20 -20 -20 -20 -4 -20 -20 -20 -20 -9 -2 -1 -20 -20 -20 -1 -2 -2 -0 1 1 -0 -2 -18 -0 -2 -2 -3 -4 -2 -3 -6
-20 -20 -20 -20 -20 -4 -20 -17 -20 -19 -20 -17 -20 -20 -20 -20 -13 -0 2 -1 -20 -5 3 -17 -20 -20 3 2 0 -1 -1 0 -1 1 -1 0 -2 -2 -1 -1 -4 -1 -4 -11
-12 -1 -2 -5 -2 0 1 0 1 4 3 4 4 3 -11 -20 -6 1 4 -7 2 -12 4 4 4 3 4 3 2 2 1 1 1 2 -2 -1 0 -1 -0 -1 -1 0 0 -0
1 -14 -0 -0 -4 -20 -15 -15 -2 3 -3 8 6 4 1 3 4 -3 -13 5 5 5 4 5 5 -10 4 2 3 2 1 3 -14 -0 3 3 2 3 1 1 2 2 2 1

GFSNGP_prec_radar_099.txt.gz
Reflectivity
17 -19 -20 -11 24 26 24 -20 -13 4 -20 16 -15 2 0 -4 -7 -7 -14 -20 -20 -6 14 24 12 21 25 27 25 20 24 23 4 9 16 12 -20 13 -14 0 13 16 9 18
8 7 -19 -20 -20 -20 -20 -20 -20 -20 13 22 -20 -1 1 -18 -1 2 -1 -17 1 3 26 28 26 28 30 25 23 28 23 19 21 22 22 -7 -14 -0 -16 1 -20 -15 -18 -3
-18 9 -12 -20 -20 -20 -20 -20 -20 -2 16 22 -20 -3 2 10 -1 -10 -3 -1 3 26 36 38 34 32 31 24 26 28 25 19 19 18 21 12 4 20 10 2 -0 -2 2 -7
-20 -20 -12 -19 -20 -20 -15 -20 -20 -20 -17 -9 -20 9 10 1 -4 2 -0 -15 -1 13 28 38 31 34 32 34 36 32 19 22 24 24 22 20 10 8 14 9 -1 3 4 15
-20 -20 -20 -20 -1 -20 -5 9 -20 -20 -4 -1 -18 2 0 -2 6 0 -3 -20 -7 -0 22 36 39 35 32 34 25 10 36 38 33 32 29 32 26 26 18 21 24 20 22 21
-20 -20 -1 15 -20 -20 -20 16 -20 -20 -20 -5 8 14 12 11 1 20 10 -20 -20 -11 -6 8 27 36 35 29 24 22 32 37 36 35 44 44 41 39 29 33 40 34 35 34
-20 -15 7 -7 -20 -20 -1 10 1 -20 -20 -20 -3 4 11 16 22 29 12 -20 -20 -20 -20 -17 4 26 32 32 26 32 37 35 33 40 37 29 33 25 36 33 34 30 20 15
12 0 8 -13 -20 -16 3 6 3 1 -4 -10 -2 -4 -3 -1 6 22 29 -20 -20 -20 -20 -20 -19 -12 17 26 27 30 32 33 26 18 31 29 22 22 14 22 31 28 19 25
6 5 5 0 2 2 3 -1 15 4 3 -3 -1 -3 -3 -6 -15 -16 -5 -20 -20 -20 -20 -20 -20 -20 1 11 25 17 23 17 25 20 22 12 15 -3 16 25 21 25 21 6
3 7 1 -4 -1 -3 3 1 8 -3 -7 -20 -6 -8 -20 -20 -20 -20 -20 -20 -20 -20 -20 -20 -20 -20 -20 -20 -16 9 16 14 13 18 21 18 12 15 15 15 14 8 12 4
2 4 -11 -13 -11 -18 -20 -20 -20 -20 -20 -20 -20 -20 -20 -20 -20 -20 -20 -20 -20 -20 -20 -20 -20 -20 -20 -20 -20 -20 -16 5 5 6 13 17 14 14 10 7 11 13 18 14
6 2 1 -1 1 -10 -20 -20 -20 -20 -20 -20 -20 -20 -20 -20 -20 -20 -20 -20 -20 -20 -20 -20 -20 -15 -8 -20 -19 -20 -20 -17 -5 -14 -14 -11 11 1 1 11 -1 6 8 7
12 3 -19 0 4 -4 -20 -20 -20 -20 -20 -20 -20 -20 -20 -20 -20 -20 -20 -20 -20 -20 -20 -20 -3 -1 2 -20 -6 -20 -19 -14 -9 -11 -9 -6 -0 -6 -4 -11 -20 -2 -1 -2
10 5 -2 -3 -20 -20 -20 -20 -20 -20 -20 -20 -20 -20 -20 -20 -17 -17 -3 -5 -20 -7 -3 -5 -4 -2 -3 -20 -4 -15 -15 -7 -12 3 2 -1 2 2 -1 -5 1 1 -20 -20
-20 -20 -20 -20 -20 -20 -20 -20 -20 -20 -20 -20 -20 -20 -20 -6 -12 -7 -20 -20 -20 -20 -13 -4 -4 -4 -8 1 -3 -15 -4 -2 2 -11 -20 -6 2 2 2 2 3 2 2 -5
-20 -20 -20 -20 -20 -20 -20 -20 -20 -20 -20 -20 -20 -20 -20 -20 -8 -3 -7 -20 -20 -3 -2 -5 -5 -3 -11 -20 6 6 -6 -20 -20 5 5 1 -8 -5 -6 -5 -1 -1 -5 -5
-20 -19 -20 -20 -20 -20 -20 -20 -20 -14 -5 -5 -2 -2 -4 -5 -20 -20 -20 -20 -20 -20 -6 -20 -5 -20 -20 -20 -8 3 4 1 -8 -2 -5 -3 -2 -4 -4 -3 -2 -20 -20 -20
-20 -20 -20 -20 -20 -20 -20 -20 -8 -9 -1 -4 -9 -20 -20 -20 -9 -5 -6 -20 -20 -20 -20 -20 -20 -20 -20 -20 -20 -10 -4 -4 -3 -4 -4 -5 -7 -10 -5 -20 -20 -20 -20 -20
-20 -20 -20 -20 -20 -20 -20 -11 -13 -10 -4 -4 -20 -20 -20 -14 -13 -20 -20 -20 -20 -20 -20 -20 -20 -20 -20 -20 -20 -20 -19 -2 -17 -13 -20 -20 -2 -20 -1 -3 -3 -3 -11 -3
-20 -20 -20 -20 -20 -9 -8 -5 -3 -17 -20 -20 -20 -8 -20 -20 -20 -20 -20 -20 -20 -20 -20 -20 -20 -20 -20 -20 -20 -20 -3 -1 -20 -17 -8 -1 2 3 -20 -20 -18 -0 2 0
-7 -20 -20 -20 -20 -20 -20 -20 -20 -20 -20 -20 -20 -20 -20 -20 -20 -20 -20 -17 -20 -20 -20 -20 -20 -20 -20 -20 -20 -5 0 -1 -1 -0 1 2 2 1 2 2 1 2 3 2
-14 -20 -20 -20 -20 -20 -16 -3 -20 -20 -20 -20 -20 -20 -20 -20 -20 -20 -20 -20 -20 -20 -20 -20 -20 -20 -20 -20 -10 1 -3 -4 0 -0 0 0 1 2 1 1 0 0 2 2
-11 -10 -11 -6 -6 -1 -3 -1 -13 -20 -20 -20 -20 -20 -20 -20 -20 -20 0 -12 -20 -20 -20 -16 -20 -20 -20 1 3 3 2 0 1 1 1 2 2 2 1 0 2 1 1 1
-3 -3 -5 -3 -4 -18 -7 -15 2 -5 -20 -20 -20 -20 -20 -4 7 -19 -20 -20 -20 -12 -19 -11 -14 -20 -20 4 3 3 4 3 3 3 1 -18 2 3 1 0 -1 1 -1 -2
-2 -1 -4 -4 -3 4 -20 -14 -7 -14 -17 -3 -20 -17 -17 -3 1 -0 1 0 -17 -8 4 -20 -20 -20 3 5 3 3 3 4 -3 1 3 3 2 1 3 2 -1 1 -4 -1
-0 -1 -3 -12 -11 -7 -3 -3 -1 0 1 5 6 4 2 2 2 -5 2 -10 -4 -13 2 4 6 2 4 5 2 3 1 2 3 -8 -10 -0 2 0 2 0 1 1 2 2
-1 -15 -4 -4 -13 -9 -13 -20 -5 1 -5 3 6 13 -6 7 6 -13 -13 5 8 8 5 7 7 -12 2 2 2 3 3 3 -14 -1 -1 2 2 2 2 2 1 1 1 0

GFSNGP_prec_radar_102.txt.gz
Reflectivity
4 2 13 37 35 30 10 2 30 12 16 -2 -5 -20 1 -2 -0 -20 -18 -20 -20 -20 -20 4 13 23 16 9 19 22 23 20 19 21 26 19 16 13 12 14 7 4 -6 -20
40 21 37 10 3 10 15 16 14 25 33 8 -4 -10 -20 -20 -6 -4 -8 -8 -10 -19 -17 -20 9 24 26 19 19 20 25 22 26 25 24 20 21 16 -18 -20 -6 13 18 -6
-0 4 -17 -16 8 13 -18 -20 -20 8 25 26 -2 -6 -13 -1 -12 -2 -17 -13 -13 -10 -15 -7 9 34 28 32 30 29 21 23 22 17 28 5 18 5 27 12 14 18 8 -15
-10 -17 -2 19 17 27 -20 -20 -20 -20 -1 -20 -20 10 10 4 1 -2 -16 -20 -20 -20 -13 7 19 29 38 32 32 33 30 28 27 27 28 23 15 21 22 1 8 17 17 15
0 4 8 -20 -20 1 25 1 -16 -20 -20 -20 -8 13 19 21 9 11 -6 -20 -20 -20 -20 -19 10 32 39 36 38 34 25 27 32 30 28 24 19 16 25 21 9 -2 7 4
-19 10 13 -7 -20 -20 -16 3 5 -20 -20 -20 -11 9 -9 8 24 21 -17 -20 -20 -20 -20 -20 -11 2 33 27 27 27 28 26 28 31 31 28 30 33 32 32 43 36 22 7
-1 7 2 -20 -20 -20 -20 12 7 -4 -19 -20 -20 -2 4 -2 -12 -1 -4 -20 -20 -20 -20 -20 -20 -20 -8 31 24 30 33 37 35 27 27 33 37 36 35 36 39 34 31 32
-19 -6 -2 -20 -20 -17 3 10 7 14 10 11 8 7 -3 -7 -20 -11 -12 -20 -20 -20 -20 -20 -20 -20 -20 -13 11 24 26 25 19 25 28 31 35 39 36 35 39 33 35 33
-16 -2 7 -1 4 9 10 -0 18 8 -2 -14 -20 -20 -19 -20 -20 -20 -20 -20 -20 -20 -20 -20 -20 -20 -20 -20 -8 4 6 13 17 18 16 22 32 27 28 27 23 25 28 26
-13 2 -20 -20 -2 -8 5 3 -13 -20 -20 -20 -20 -20 -20 -20 -20 -20 -20 -20 -20 -20 -20 -20 -20 -20 -20 -18 -20 -12 -20 -19 -1 10 15 15 17 19 23 26 25 23 20 15
-4 -11 -20 -19 -10 -11 -20 -20 -20 -20 -20 -20 -20 -20 -20 -20 -20 -20 -20 -20 -20 -20 -20 -20 -20 -13 -20 -20 -20 -20 -20 -20 -20 -8 -2 7 11 12 14 16 18 21 18 17
-10 -2 -19 -15 -20 -20 -20 -20 -20 -20 -20 -20 -20 -20 -20 -20 -20 -20 -20 -20 -20 -20 -20 -20 -7 -11 -15 -19 -20 -20 -20 -20 -20 -14 -14 -5 1 3 6 10 11 10 5 4
0 -20 -20 -20 -9 -20 -20 -20 -20 -20 -20 -20 -20 -20 -20 -20 -20 -20 -20 -20 -20 -20 -20 -20 -6 -20 -4 -20 -9 -20 -19 -6 -20 -20 -20 -19 3 -1 -16 -20 -10 -3 -3 -4
-0 -18 -13 -16 -20 -20 -20 -20 -20 -20 -20 -20 -20 -20 -20 -20 -19 -12 4 -4 -20 -20 -19 -20 -18 -20 -20 -9 -20 -5 -7 -20 -20 -7 -9 -17 -20 -20 -17 -5 -9 -11 -20 -20
-20 -20 -20 -20 -20 -20 -20 -20 -20 -20 -20 -20 -20 -20 -20 -19 -11 -17 -20 -10 -20 -20 -20 -20 -20 -14 -20 -19 -10 -20 -20 -1 5 -1 -20 3 -0 -4 0 -12 -20 -13 -20 -13
-20 -20 -20 -20 -20 -20 -20 -20 -20 -20 -20 -20 -20 -20 -20 -20 -20 -9 -19 -20 -20 -5 -4 -20 -20 -20 -20 -20 -20 8 -1 -20 -6 6 3 6 -2 -6 1 -7 -20 -20 -20 -20
-20 -19 -20 -20 -20 -20 -20 -20 -20 -20 -20 -20 -20 -20 -20 3 -20 -10 -2 -5 -20 -20 -20 -20 -20 -20 -20 -20 -20 3 5 0 1 3 -17 0 -20 -5 -2 -20 -20 -20 -20 -20
-20 -20 -20 -20 -20 -20 -20 -20 -14 -20 -20 -20 -20 -20 -20 -20 -12 -16 -20 -20 -20 -20 -20 -20 -20 -20 -20 -20 -20 -20 -6 -5 -20 -20 -20 -20 -7 -19 -20 -20 -20 -20 -18 -20
-20 -20 -20 -20 -20 -20 -20 -20 -20 -20 -6 -6 -20 -20 -20 -20 -20 -20 -20 -20 -20 -20 -20 -20 -20 -20 -20 -20 -20 -20 -20 -20 -20 -20 -9 -7 -20 -20 -18 -4 -13 -20 -20 -20
-20 -20 -20 -20 -20 -20 -20 -20 -7 -14 -16 -20 -20 -20 -20 -20 -20 -20 -20 -20 -20 -20 -20 -20 -20 -20 -20 -20 -20 -20 -20 -13 -20 -20 -20 -19 -9 -15 -20 -20 -18 -1 -1 -20
-20 -20 -20 -20 -20 -20 -20 -20 -20 -20 -20 -20 -20 -20 -20 -20 -20 -20 -20 7 -20 -20 -20 -20 -20 -20 -20 -20 -20 -3 -6 -1 -7 -4 -0 5 5 -18 -18 -12 -18 -20 -6 -20
-20 -20 -20 -20 -20 -20 -11 -20 -20 -20 -20 -20 -20 -20 -20 -20 -20 -20 -20 -20 -20 -20 -20 -20 -20 -20 -20 -20 -6 -20 -20 -20 -16 -12 -9 -20 -20 -9 -14 -20 -12 -20 -0 -12
-20 -20 -20 -20 -10 -17 -20 -20 -20 -20 -20 -20 -20 -20 -19 -20 -20 -20 1 -20 -20 -20 -20 -20 -20 -20 -20 -20 3 2 3 1 -10 -2 -8 -10 -13 -20 -20 -20 -20 -8 -20 -20
-10 -11 -13 -0 -20 -20 -20 -20 -20 -20 -20 -20 -20 -20 -20 -20 -2 2 -20 -20 -20 -20 -20 -20 -20 -20 -20 -20 6 3 4 5 7 1 -4 -20 -6 -0 -8 -20 -20 -20 -17 -20
-3 -20 -20 -20 -18 3 -20 -20 -20 -20 -20 -20 -16 -20 -20 -20 -20 -20 -20 -20 -20 -20 -1 -20 -20 -20 -20 9 2 -9 -5 11 -20 -20 -20 -0 -3 -2 -0 -20 -16 -4 -20 -20
-20 5 -1 -20 -20 -20 -20 -20 -20 -11 -11 3 -3 13 12 -20 -20 -20 6 -19 -20 -20 -20 -0 -2 -20 -20 -12 -20 -10 3 4 1 -18 -20 -20 -20 3 -13 -7 -20 -7 0 -8
-16 -20 -12 -19 -20 -20 -20 -20 -20 7 -20 -20 -20 -16 16 -7 5 -20 -20 -20 -5 11 10 7 6 -15 -12 -20 -20 -1 7 5 -11 -20 -20 -20 -20 -14 -16 -18 -20 -20 -20 -20

GFSNGP_prec_radar_105.txt.gz
Reflectivity
13 22 18 -9 27 31 15 23 32 38 23 -1 13 -1 -0 -6 -4 -10 -11 -17 -17 -19 -19 -20 2 2 12 23 24 10 26 17 10 15 30 30 18 8 1 12 19 14 -8 -5
27 34 29 37 36 30 10 30 32 25 25 6 7 -16 -20 -12 -13 -19 -1 -15 -17 -17 -20 -20 -18 -10 11 28 10 8 29 19 25 23 28 23 25 -4 7 20 19 19 5 -1
25 29 10 29 10 4 -5 16 -20 -12 20 -8 -20 -20 -14 -20 -19 -16 -20 -20 -20 -20 -17 -6 -6 -8 1 16 33 13 12 18 28 28 28 25 16 21 -3 20 2 20 17 18
0 13 20 30 18 18 -13 -16 -19 -1 -17 -13 -18 -8 -2 2 0 -1 2 -20 -20 -20 -20 -15 -20 -20 -17 2 30 28 26 16 28 33 30 23 19 31 21 20 11 23 14 16
15 0 -6 -3 -6 -16 -3 4 3 -4 0 13 -13 -18 -20 -5 -1 -1 -20 -20 -20 -20 -20 -18 -20 -20 -20 -18 15 32 33 38 32 32 35 28 16 34 30 25 33 23 22 24
-20 -5 10 -18 -20 -20 -20 -20 9 -12 -20 -6 -10 -20 -20 -1 -19 -12 -11 -20 -20 -20 -20 -20 -20 -20 -10 -20 -17 16 22 22 36 33 35 33 37 36 30 14 10 7 19 3
-20 -17 -20 -20 -20 -20 -8 -4 15 -9 -18 -20 -20 -13 -6 -11 -10 12 -17 -20 -20 -20 -20 -20 -20 -20 -20 -15 -20 9 17 24 27 28 34 34 36 36 29 31 26 22 21 15
-20 -20 -20 -20 -20 -19 11 20 14 3 -1 -20 -14 -17 -20 -20 -20 -20 -20 -20 -20 -20 -20 -20 -20 -20 -20 -18 -11 -20 -4 11 17 22 21 19 23 29 29 24 17 19 27 19
-6 -12 -3 0 7 5 3 2 24 6 -18 -20 -20 -20 -20 -20 -20 -20 -20 -20 -20 -20 -20 -20 -20 -20 -18 -18 -20 -20 -20 -5 9 11 17 19 20 20 29 24 23 22 22 23
-10 6 -17 2 2 -1 11 -11 -20 -20 -6 -20 -20 -20 -20 -20 -20 -20 -20 -20 -20 -20 -20 -20 -20 -20 -15 -12 -16 -20 -20 -20 -6 -4 2 -2 7 13 15 14 22 25 22 25
0 -15 -20 -20 -7 -5 -20 -20 -20 -20 -20 -20 -20 -20 -20 -20 -20 -20 -20 -20 -20 -20 -20 -12 -20 -20 -20 -20 -20 -18 -19 -11 -20 -20 -6 -12 -20 -16 -9 3 5 8 16 20
-20 -0 -20 -18 -11 -20 -20 -20 -20 -20 -20 -20 -20 -20 -20 -20 -20 -20 -20 -20 -20 -20 -20 -20 -20 -20 -18 -20 -20 -20 -20 -20 -19 -19 -20 -20 -20 -20 -2 -13 -5 -0 4 3
-20 -20 -20 -20 -20 -20 -20 -20 -20 -20 -20 -20 -20 -20 -20 -20 -20 -20 -20 -20 -20 -20 -20 -20 -20 -20 -20 -20 -20 -18 -20 -20 -20 -20 -20 -17 -20 -20 -20 -12 -20 -20 -20 -19
-19 -18 -15 -19 -20 -20 -20 -20 -20 -20 -20 -20 -20 -20 -20 -20 -20 -20 -20 0 -20 -20 -20 -20 -20 -20 -20 -20 -20 -20 -12 -20 -20 -20 -20 -20 -20 -20 -11 -20 -20 -20 -16 -17
-20 -20 -20 -20 -20 -20 -20 -20 -20 -20 -20 -20 -20 -20 -20 -20 -20 -20 -20 -20 -20 -20 -20 -20 -20 -20 -20 -20 -20 -20 -20 -20 -13 -20 -20 -20 -20 -20 -20 -20 -20 -20 -20 -20
-20 -20 -20 -20 -20 -20 -20 -20 -20 -20 -20 -20 -20 -20 -20 -20 -20 -20 -20 -20 -20 -20 -20 -20 -20 -20 -20 -20 -20 -18 -20 -20 -20 -20 -20 -20 -20 -20 -20 -20 -20 -20 -20 -20
-20 -20 -20 -20 -20 -20 -20 -20 -20 -20 -20 -20 -20 -20 -20 -20 -20 -20 -20 -20 -20 -20 -20 -20 -20 -20 -20 -20 -20 -20 -20 -20 -20 -20 -20 -20 -20 -20 -20 -20 -20 -20 -20 -20
-20 -20 -20 -20 -20 -20 -20 -20 -20 -20 -20 -20 -20 -20 -20 -20 -20 -20 -20 -20 -20 -20 -20 -20 -20 -20 -20 -20 -20 -20 -20 -20 -20 -20 -20 -20 -20 -20 -20 -20 -20 -20 -20 -20
-20 -20 -20 -20 -20 -20 -20 -20 -20 -20 -20 -20 -20 -20 -20 -20 -20 -20 -20 -20 -20 -20 -20 -20 -20 -20 -20 -20 -20 -20 -20 -20 -20 -20 -20 -20 -20 -20 -20 -20 -20 -20 -20 -20
-20 -20 -20 -20 -20 -20 -20 -20 -20 -20 -20 -20 -20 -20 -20 -20 -20 -20 -20 -20 -20 -20 -20 -20 -20 -20 -20 -20 -20 -20 -20 -20 -20 -20 -20 -20 -20 -20 -20 -20 -20 -20 -20 -20
-20 -20 -20 -20 -20 -20 -20 -20 -20 -20 -20 -20 -20 -20 -20 -20 -20 -20 -20 -20 -20 -20 -20 -20 -20 -20 -20 -20 -20 -20 -20 -20 -20 -20 -20 -20 -20 -20 -20 -20 -20 -20 -20 -20
-20 -20 -20 -20 -20 -20 -20 -20 -20 -20 -20 -20 -20 -20 -20 -20 -20 -20 -20 -20 -20 -20 -20 -20 -20 -20 -20 -20 -20 -20 -20 -20 -20 -20 -20 -20 -20 -20 -20 -20 -20 -20 -20 -20
-20 -20 -20 -20 -20 -20 -20 -20 -20 -20 -20 -20 -20 -20 -20 -20 -20 -20 -20 -20 -20 -20 -20 -20 -20 -20 -20 -20 -20 -20 -20 -20 -20 -20 -20 -20 -20 -20 -20 -20 -20 -20 -20 -20
-20 -20 -20 -20 -20 -20 -20 -20 -20 -20 -20 -20 -20 -20 -20 -20 -20 -20 -20 -20 -20 -20 -20 -20 -20 -20 -20 -20 -20 -20 -20 -20 -20 -20 -20 -20 -20 -20 -20 -20 -20 -20 -20 -20
-20 -20 -20 -20 -20 -20 -20 -20 -19 -3 -17 -17 1 -5 -20 -20 -20 -20 -20 -20 -20 -20 -20 -20 -20 -20 -20 -20 -20 -20 -20 -20 -20 -20 -20 -20 -20 -20 -20 -20 -20 -20 -20 -20
-20 -20 -20 -20 -20 -20 -20 -20 -20 -20 -20 -20 -20 -20 -18 -12 -19 -20 -20 -20 -20 -20 -20 -20 -20 -20 -20 -20 -20 -20 -20 -20 -20 -20 -20 -20 -20 -20 -20 -20 -20 -20 -20 -20
-20 -20 -20 -20 -20 -20 -20 -20 -20 -20 -20 -20 -20 -20 -20 -13 4 -20 -20 -20 -20 -20 -20 -20 -20 -20 -20 -20 -20 -20 -20 -20 -20 -20 -20 -20 -20 -20 -20 -20 -20 -20 -20 -20